[[{"header":{"parameterUnit":"m.s-1","parameterCategory":1,"la1":30.2991,"la2":30.254,"lo1":-89.0895,"lo2":-89.0444,"dy":0.0017,"dx":0.0017,"nx":28,"ny":28,"refTime":"2025-06-20T09:00:00:Z","depth":0,"parameterNumber":2,"parameterNumberName":"U-component_of_WINDS"},"data":[0,0,0,0,0,0,0,0,0,0,0,0,0,0,0,0,0,0,0,0,0,0,0,0,0,0,0,0,0,0,0,0,0,0,0,0,0,0,0,0,0,0,0,0,0,0,0,0,0,0,0,0,0,0,0,0,0,0,1.5124,1.5124,0,1.5145,1.5145,1.5145,1.5097,1.5096,1.5094,1.5093,1.5116,1.5118,1.512,0,0,0,0,0,0,0,0,0,0,0,0,0,1.5042,1.5044,1.5124,1.5124,1.5124,1.5145,1.5145,1.5146,1.5098,1.5096,1.5094,1.5092,1.5115,1.5118,1.512,0,0,0,0,0,0,0,0,0,0,0,0,0,1.5072,1.5044,1.5124,1.5103,1.5101,1.5145,1.5145,1.5146,1.5098,1.5096,1.5093,1.5091,1.5115,1.5118,1.5121,1.5186,0,0,1.513,1.5132,0,0,0,0,0,0,0,0,1.507,1.5075,1.5106,1.5104,1.5103,1.5116,1.5125,1.5159,1.5099,1.5099,1.5093,1.509,1.5118,1.5121,1.513,1.5187,1.5188,1.513,1.5132,1.5134,1.5135,0,0,0,0,0,0,0,1.5068,1.5074,1.5132,1.5106,1.5104,1.5092,1.5094,1.5131,1.5122,1.5099,1.5096,1.5099,1.5117,1.5127,1.513,1.5189,1.513,1.5133,1.5135,1.5136,1.5298,1.53,0,0,0,0,0,0,1.5069,1.5072,1.5132,1.5133,1.508,1.5096,1.5098,1.5114,1.5121,1.512,1.5101,1.5096,1.5123,1.5127,1.5131,1.5206,1.5134,1.5137,1.5138,1.5295,1.5298,1.5301,0,0,0,0,0,0,1.5067,1.5074,1.5131,1.5102,1.5108,1.51,1.5119,1.5116,1.5126,1.5122,1.512,1.5113,1.5121,1.5126,1.5172,1.5206,1.5138,1.5141,1.5292,1.5296,1.5299,1.5358,0,0,0,0,0,0,1.5065,1.5074,1.5099,1.5103,1.511,1.5172,1.5121,1.5118,1.5131,1.5126,1.5133,1.5132,1.512,1.5168,1.5175,1.5209,1.5143,1.5289,1.5294,1.5298,1.5353,1.5363,1.5372,0,0,0,0,0,1.5062,1.5116,1.5101,1.5108,1.5141,1.5174,1.5178,1.5162,1.5134,1.5159,1.5156,1.5132,1.5201,1.5173,1.5181,1.5216,1.5287,1.5293,1.5298,1.5348,1.5361,1.5371,0,0,0,0,0,0,1.5118,1.5116,1.5099,1.5156,1.5165,1.5166,1.5197,1.5177,1.5195,1.5189,1.5169,1.5171,1.522,1.5223,1.5191,1.5278,1.5239,1.5247,1.5275,1.5287,1.5296,1.5294,1.5146,0,0,0,0,0,1.5137,1.5164,1.5161,1.5211,1.5216,1.5206,1.522,1.5206,1.5216,1.522,1.522,1.5231,1.5254,1.5271,1.5293,1.5353,1.5353,1.5381,1.539,1.5398,1.5404,1.5434,1.5446,1.5319,1.5319,1.5319,0,0,1.5176,1.5178,1.5197,1.5222,1.5228,1.5255,1.521,1.5242,1.5262,1.5225,1.5267,1.5268,1.5278,1.533,1.5354,1.5334,1.5439,1.5405,1.5411,1.5413,1.5441,1.5453,1.5463,1.5322,1.5322,1.5321,0,0,1.5262,1.5267,1.5307,1.5314,1.5322,1.5315,1.5324,1.5328,1.5326,1.5368,1.534,1.5364,1.5406,1.5414,1.5423,1.5508,1.5486,1.5516,1.5565,1.5594,1.5604,1.5613,1.5642,1.5652,1.5523,1.5523,1.5523,0,1.531,1.535,1.5331,1.5364,1.5375,1.5342,1.5382,1.5389,1.5405,1.5414,1.5391,1.5441,1.5446,1.5498,1.5519,1.5528,1.5538,1.5515,1.5604,1.5613,1.5621,1.5648,1.5659,1.5526,1.5526,1.5525,1.5525,0,1.5408,1.5436,1.5468,1.5482,1.5497,1.5534,1.552,1.5537,1.5522,1.5516,1.5558,1.5562,1.5583,1.5595,1.5582,1.5645,1.5632,1.5608,1.5568,1.5637,1.5662,1.5672,1.5531,1.553,1.5529,1.5528,0,0,1.5531,1.5532,1.5544,1.5548,1.5554,1.5576,1.5611,1.563,1.5644,1.5656,1.5683,1.5718,1.5695,1.5705,1.5692,1.5718,1.5782,1.5689,1.5689,1.5705,1.585,1.5868,1.588,1.5768,1.577,1.5771,1.5849,0,1.5613,1.5672,1.5654,1.5713,1.5738,1.5705,1.5735,1.5741,1.5737,1.5757,1.5752,1.5776,1.5744,1.575,1.5774,1.577,1.5811,1.5764,1.5793,1.5794,1.579,1.5894,1.5913,1.5986,1.5859,1.586,1.5862,0,1.5719,1.5732,1.5793,1.5792,1.5802,1.5829,1.5843,1.5864,1.587,1.5864,1.5875,1.5856,1.5889,1.5849,1.5893,1.5862,1.5872,1.5872,1.5874,1.5876,1.5831,1.5897,1.601,1.602,1.5877,1.5876,1.5875,0,1.58,1.5833,1.5873,1.5879,1.5879,1.5898,1.59,1.5904,1.5915,1.5928,1.5935,1.5953,1.5962,1.5976,1.5961,1.5934,1.6008,1.5967,1.6003,1.6004,1.602,1.6019,1.6135,1.6029,1.6029,1.6029,1.6028,0,1.5893,1.5932,1.5909,1.5934,1.5974,1.5954,1.5995,1.5993,1.5996,1.6019,1.5992,1.6014,1.5994,1.6014,1.6004,1.6041,1.6046,1.6042,1.6038,1.6044,1.6044,1.605,1.6044,1.6031,1.6031,1.603,1.603,0,1.5991,1.5978,1.6019,1.6015,1.6015,1.6045,1.6041,1.6064,1.6056,1.6085,1.6091,1.6079,1.6102,1.6088,1.6112,1.6104,1.6152,1.6143,1.615,1.6147,1.6183,1.6179,1.6306,1.6321,1.6206,1.6208,1.6209,0,1.6052,1.608,1.6078,1.609,1.6093,1.6115,1.6125,1.6106,1.6118,1.6126,1.6147,1.6167,1.6181,1.6218,1.6212,1.6229,1.6218,1.6261,1.6221,1.6224,1.6217,1.6215,1.6217,1.6269,1.6271,1.6272,1.6273,0,1.6159,1.6151,1.6167,1.6181,1.6194,1.6205,1.6213,1.6225,1.6205,1.622,1.6242,1.6253,1.6275,1.6294,1.6308,1.6309,1.6288,1.6285,1.6294,1.63,1.6302,1.63,1.6171,1.6283,1.6282,1.6281,1.628,1.628,1.6239,1.6261,1.6263,1.6282,1.6285,1.6292,1.6312,1.6306,1.6323,1.6339,1.6326,1.6351,1.6355,1.6371,1.6375,1.6394,1.6376,1.639,1.6393,1.6396,1.6401,1.63,1.6397,1.6396,1.6396,1.6396,1.6395,0,1.6344,1.6343,1.636,1.6371,1.6385,1.6362,1.6369,1.6383,1.6405,1.6409,1.6423,1.6447,1.6465,1.6459,1.6475,1.6491,1.6482,1.6496,1.6494,1.6494,1.6416,1.6406,1.6503,1.6503,1.6503,1.6503,1.6503,1.6503,1.64,1.6436,1.6427,1.6464,1.6462,1.6485,1.6491,1.6497,1.65,1.6528,1.6542,1.6537,1.6537,1.6552,1.6568,1.6565,1.6572,1.659,1.6584,1.6511,1.65,1.649,1.648,1.6592,1.6592,1.666,1.6661,1.6662]},{"header":{"parameterUnit":"m.s-1","parameterCategory":1,"la1":30.2991,"la2":30.254,"lo1":-89.0895,"lo2":-89.0444,"dy":0.0017,"dx":0.0017,"nx":28,"ny":28,"refTime":"2025-06-20T09:00:00:Z","depth":0,"parameterNumber":3,"parameterNumberName":"V-component_of_WINDS"},"data":[0,0,0,0,0,0,0,0,0,0,0,0,0,0,0,0,0,0,0,0,0,0,0,0,0,0,0,0,0,0,0,0,0,0,0,0,0,0,0,0,0,0,0,0,0,0,0,0,0,0,0,0,0,0,0,0,0,0,4.3716,4.3715,0,4.3677,4.3677,4.3676,4.3592,4.359,4.3588,4.3587,4.3547,4.3548,4.3548,0,0,0,0,0,0,0,0,0,0,0,0,0,4.3714,4.3715,4.3716,4.3715,4.3715,4.3677,4.3677,4.3676,4.3592,4.359,4.3588,4.3586,4.3547,4.3548,4.3548,0,0,0,0,0,0,0,0,0,0,0,0,0,4.37,4.3715,4.3716,4.3668,4.3663,4.3677,4.3677,4.3676,4.3592,4.359,4.3587,4.3585,4.3547,4.3547,4.3548,4.3605,0,0,4.3551,4.3551,0,0,0,0,0,0,0,0,4.37,4.37,4.3676,4.3671,4.3666,4.3637,4.3662,4.3652,4.3593,4.3619,4.3587,4.3584,4.3579,4.3577,4.3575,4.3604,4.3602,4.3551,4.3551,4.3552,4.3552,0,0,0,0,0,0,0,4.3702,4.3701,4.37,4.3675,4.367,4.3648,4.3643,4.366,4.3614,4.3617,4.3611,4.3607,4.3576,4.3575,4.3574,4.3601,4.3551,4.3552,4.3552,4.3552,4.3671,4.3674,0,0,0,0,0,0,4.371,4.3702,4.3702,4.3699,4.3677,4.365,4.3645,4.3649,4.3614,4.3606,4.361,4.3603,4.3575,4.3573,4.3572,4.3634,4.3552,4.3553,4.3553,4.3668,4.3672,4.3674,0,0,0,0,0,0,4.371,4.371,4.3703,4.3699,4.3696,4.3653,4.3658,4.3649,4.3648,4.3608,4.36,4.3617,4.3573,4.3571,4.3597,4.3632,4.3553,4.3554,4.3665,4.3669,4.3673,4.376,0,0,0,0,0,0,4.371,4.3711,4.3733,4.37,4.3697,4.373,4.3661,4.365,4.365,4.3642,4.3613,4.3606,4.357,4.3596,4.3598,4.3631,4.3554,4.3662,4.3667,4.3672,4.3754,4.3767,4.3778,0,0,0,0,0,4.3711,4.376,4.3734,4.3735,4.3723,4.3732,4.373,4.3688,4.3653,4.3674,4.3648,4.3606,4.3628,4.36,4.3601,4.3635,4.3659,4.3666,4.3671,4.3749,4.3764,4.3778,0,0,0,0,0,0,4.3798,4.3754,4.3726,4.3766,4.3753,4.3717,4.3743,4.3707,4.3704,4.3696,4.3645,4.3639,4.3671,4.3656,4.3625,4.3687,4.3637,4.3643,4.3696,4.371,4.3722,4.3724,4.3555,0,0,0,0,0,4.3822,4.3832,4.3794,4.3833,4.3828,4.3787,4.3789,4.3758,4.3742,4.3737,4.3713,4.3699,4.3702,4.3706,4.3707,4.3752,4.3743,4.3776,4.3788,4.3798,4.3803,4.3823,4.3837,4.3694,4.3694,4.3694,0,0,4.3871,4.3849,4.3859,4.385,4.3836,4.3847,4.3783,4.3798,4.3805,4.3739,4.3761,4.3743,4.3724,4.376,4.3774,4.3748,4.3841,4.3805,4.3814,4.3814,4.3831,4.3845,4.3857,4.3698,4.3697,4.3697,0,0,4.3966,4.3952,4.3981,4.3968,4.3948,4.392,4.3928,4.3897,4.3882,4.3904,4.3853,4.3862,4.3869,4.3857,4.3852,4.3941,4.3902,4.3943,4.4004,4.4024,4.4035,4.4045,4.4074,4.4086,4.3949,4.3949,4.395,0,4.403,4.4045,4.4001,4.4018,4.4015,4.3955,4.3984,4.3974,4.3955,4.3954,4.3925,4.3932,4.3915,4.3945,4.3967,4.3966,4.3971,4.3945,4.4037,4.4047,4.4055,4.4082,4.4094,4.3954,4.3954,4.3953,4.3953,0,4.4123,4.4135,4.4161,4.4143,4.4143,4.4167,4.4125,4.413,4.4099,4.4074,4.4095,4.4073,4.4068,4.4073,4.4044,4.4099,4.4083,4.4047,4.3995,4.4074,4.4099,4.4109,4.3961,4.396,4.3958,4.3957,0,0,4.4271,4.4229,4.4239,4.4229,4.4202,4.421,4.423,4.4224,4.4228,4.4218,4.4231,4.4239,4.4204,4.4199,4.4167,4.4185,4.4254,4.4146,4.4145,4.4165,4.431,4.4336,4.4349,4.4229,4.423,4.4232,4.4311,0,4.4358,4.439,4.435,4.4389,4.4398,4.4341,4.4358,4.4343,4.432,4.4323,4.4298,4.4302,4.4258,4.4254,4.4269,4.4242,4.4282,4.4237,4.4239,4.424,4.4243,4.4362,4.439,4.4465,4.432,4.4322,4.4323,0,4.4464,4.4457,4.4498,4.4466,4.4468,4.4484,4.4474,4.4479,4.446,4.4442,4.4435,4.4397,4.4413,4.4364,4.4384,4.4354,4.4353,4.434,4.4342,4.4339,4.4285,4.436,4.4489,4.4499,4.4339,4.4337,4.4336,0,4.4564,4.4566,4.4589,4.4584,4.4548,4.456,4.4546,4.4525,4.4523,4.4515,4.4513,4.4507,4.4503,4.4499,4.4459,4.4428,4.4484,4.4432,4.4467,4.4468,4.448,4.4479,4.4608,4.4483,4.4483,4.4483,4.4483,0,4.4664,4.4691,4.4634,4.4648,4.4676,4.4629,4.4657,4.4637,4.4619,4.4627,4.4578,4.4587,4.4536,4.4539,4.4509,4.4528,4.4528,4.4512,4.4503,4.4515,4.4517,4.4512,4.4505,4.4486,4.4485,4.4485,4.4484,0,4.4781,4.4744,4.4766,4.473,4.4722,4.4743,4.4712,4.4723,4.4697,4.4708,4.4708,4.4667,4.4668,4.4629,4.4622,4.4601,4.4633,4.4616,4.464,4.4633,4.4669,4.4666,4.4798,4.4811,4.4681,4.4682,4.4683,0,4.4846,4.4864,4.483,4.4833,4.4821,4.4825,4.4823,4.4778,4.4777,4.4756,4.477,4.4767,4.4761,4.4765,4.4734,4.4728,4.4709,4.4755,4.4707,4.4718,4.4706,4.4705,4.4705,4.4765,4.4767,4.4768,4.4769,0,4.4964,4.4944,4.4943,4.4935,4.4934,4.4926,4.4914,4.4919,4.4869,4.4871,4.4871,4.4867,4.486,4.4856,4.4844,4.4828,4.479,4.4785,4.4792,4.4803,4.4815,4.4806,4.4665,4.4781,4.478,4.4779,4.4779,4.4778,4.5054,4.5067,4.5045,4.5045,4.5031,4.5021,4.5029,4.5004,4.5003,4.4993,4.4967,4.4971,4.4949,4.4929,4.4917,4.4918,4.4895,4.4906,4.4909,4.4911,4.4917,4.4817,4.4916,4.4916,4.4916,4.4915,4.4915,0,4.5167,4.515,4.515,4.5135,4.5135,4.5099,4.5084,4.5086,4.509,4.5074,4.5069,4.5068,4.5065,4.5033,4.5025,4.5033,4.5014,4.5032,4.5029,4.5026,4.494,4.4933,4.5046,4.5046,4.5046,4.5046,4.5046,4.5046,4.5226,4.5245,4.5223,4.5235,4.5217,4.522,4.5215,4.5205,4.5191,4.5192,4.5189,4.5168,4.5145,4.5135,4.5129,4.512,4.5118,4.5141,4.5125,4.5045,4.5032,4.502,4.5013,4.5142,4.5142,4.5211,4.5211,4.5212]}]]